Terminal Aerodrome Forecast
Issued by NWS Raleigh/Durham, NC

Home | Current Version | Previous Version | Text Only | Print | Product List | Glossary On
Versions: 1 2 3 4 5 6 7 8 9 10 11 12 13 14 15 16 17 18 19 20 21 22 23 24 25 26 27 28 29 30 31 32 33 34 35 36 37
000
FTUS42 KRAH 022331
TAFGSO
TAF
KGSO 022331Z 0300/0324 18008KT P6SM FEW060 BKN250=

USA.gov is the U.S. government's official web portal to all federal, state and local government web resources and services.